Location: Bushey
(51.6333°N, 0.3667°W)
Time: 03:40:08
(UTC+00:00)

USA 305 - Visible Passes

Search period start: 14 June 2021 00:00
Search period end: 24 June 2021 00:00
Orbit: 567 x 573 km, 54.0° (Epoch: 07 May)

Date Brightness Start Highest point End Pass type
(mag) Time Alt. Az. Time Alt. Az. Time Alt. Az.
14 Jun 5.3 02:44:32 10° SSE 02:46:03 12° SE 02:47:35 10° ESE visible
15 Jun 5.0 02:44:07 10° S 02:46:51 17° SE 02:49:34 10° E visible
16 Jun 4.5 02:44:19 10° S 02:47:41 23° SE 02:51:02 10° E visible
17 Jun 4.1 02:44:48 10° SSW 02:48:32 31° SE 02:52:18 10° E visible
18 Jun 3.6 02:45:27 10° SW 02:49:26 41° SE 02:53:27 10° ENE visible
19 Jun 4.9 01:09:52 12° SSE 01:11:11 14° SE 01:13:24 10° E visible
19 Jun 3.2 02:46:14 10° SW 02:50:23 54° SSE 02:54:33 10° ENE visible
20 Jun 4.5 01:10:32 16° SSE 01:11:59 19° SE 01:15:02 10° E visible
20 Jun 3.0 02:47:08 10° WSW 02:51:21 69° SSE 02:55:36 10° ENE visible
21 Jun 4.1 01:11:07 20° S 01:12:49 26° SE 01:16:22 10° E visible
21 Jun 2.9 02:48:05 10° WSW 02:52:21 84° SSE 02:56:38 10° ENE visible
22 Jun 3.7 01:11:38 22° SSW 01:13:40 35° SE 01:17:33 10° ENE visible
22 Jun 3.0 02:49:07 10° WSW 02:53:23 82° NNW 02:57:39 10° ENE visible
22 Jun 5.1 23:36:04 11° ESE 23:36:04 11° ESE 23:36:52 10° ESE visible
23 Jun 3.2 01:12:05 21° SSW 01:14:34 46° SSE 01:18:40 10° ENE visible
23 Jun 3.2 02:50:10 10° W 02:54:26 72° NNW 02:58:41 10° ENE visible
23 Jun 4.6 23:36:25 16° SE 23:36:25 16° SE 23:38:54 10° E visible
